Hourly Weather Swansea

Today, 11 July, Saturday

Time Temperature Precipitation Wind Pressure Humidity
00:00 +9°C° 0 mm 2 mps 767 mmHg 88%
01:00 +9°C° 0 mm 2 mps 767 mmHg 89%
02:00 +9°C° 0 mm 2 mps 767 mmHg 89%
03:00 +9°C° 0 mm 2 mps 767 mmHg 90%
04:00 +9°C° 0 mm 2 mps 768 mmHg 89%
05:00 +10°C° 0 mm 2 mps 768 mmHg 89%
06:00 +12°C° 0 mm 2 mps 768 mmHg 89%
07:00 +14°C° 0 mm 2 mps 769 mmHg 83%
08:00 +15°C° 0 mm 2 mps 769 mmHg 76%
09:00 +16°C° 0 mm 2 mps 769 mmHg 70%
10:00 +17°C° 0 mm 2 mps 769 mmHg 68%
11:00 +18°C° 0 mm 2 mps 769 mmHg 67%
12:00 +18°C° 0 mm 2 mps 769 mmHg 65%
13:00 +18°C° 0 mm 3 mps 769 mmHg 66%
14:00 +18°C° 0 mm 4 mps 769 mmHg 67%
15:00 +18°C° 0 mm 4 mps 769 mmHg 68%
16:00 +18°C° 0 mm 4 mps 769 mmHg 69%
17:00 +17°C° 0 mm 4 mps 769 mmHg 71%
18:00 +17°C° 0 mm 4 mps 769 mmHg 73%
19:00 +14°C° 0 mm 3 mps 769 mmHg 76%
20:00 +13°C° 0 mm 2 mps 769 mmHg 79%
21:00 +10°C° 0 mm 2 mps 770 mmHg 83%
22:00 +10°C° 0 mm 2 mps 770 mmHg 80%
23:00 +9°C° 0 mm 2 mps 770 mmHg 78%

Tomorrow, 12 July, Sunday

Time Temperature Precipitation Wind Pressure Humidity
00:00 +9°C° 0 mm 2 mps 770 mmHg 76%
01:00 +8°C° 0 mm 2 mps 769 mmHg 77%
02:00 +9°C° 0 mm 1 mps 769 mmHg 77%
03:00 +9°C° 0 mm 1 mps 769 mmHg 78%
04:00 +10°C° 0 mm 1 mps 769 mmHg 78%
05:00 +11°C° 0 mm 1 mps 769 mmHg 79%
06:00 +12°C° 0 mm 1 mps 769 mmHg 79%
07:00 +14°C° 0 mm 1 mps 769 mmHg 75%
08:00 +15°C° 0 mm 1 mps 769 mmHg 70%
09:00 +18°C° 0 mm 1 mps 770 mmHg 65%
10:00 +17°C° 0 mm 2 mps 770 mmHg 64%
11:00 +18°C° 0 mm 2 mps 770 mmHg 63%
12:00 +19°C° 0 mm 2 mps 770 mmHg 62%
13:00 +19°C° 0 mm 2 mps 769 mmHg 62%
14:00 +19°C° 0 mm 2 mps 769 mmHg 62%
15:00 +19°C° 0 mm 2 mps 769 mmHg 62%
16:00 +18°C° 0 mm 2 mps 769 mmHg 65%
17:00 +18°C° 0 mm 2 mps 768 mmHg 69%
18:00 +17°C° 0 mm 2 mps 768 mmHg 72%
19:00 +16°C° 0 mm 2 mps 768 mmHg 76%
20:00 +14°C° 0 mm 2 mps 769 mmHg 81%
21:00 +12°C° 0 mm 1 mps 769 mmHg 85%
22:00 +12°C° 0 mm 1 mps 769 mmHg 85%
23:00 +10°C° 0 mm 2 mps 768 mmHg 86%

Day after tomorrow, 13 July, Monday

Time Temperature Precipitation Wind Pressure Humidity
00:00 +10°C° 0 mm 2 mps 768 mmHg 87%
01:00 +10°C° 0 mm 2 mps 768 mmHg 88%
02:00 +10°C° 0 mm 2 mps 767 mmHg 90%
03:00 +10°C° 0 mm 3 mps 767 mmHg 92%
04:00 +11°C° 0 mm 3 mps 767 mmHg 92%
05:00 +12°C° 0 mm 3 mps 767 mmHg 91%
06:00 +13°C° 0 mm 3 mps 766 mmHg 91%
07:00 +14°C° 0 mm 4 mps 766 mmHg 87%
08:00 +15°C° 0 mm 4 mps 766 mmHg 84%
09:00 +16°C° 0 mm 5 mps 766 mmHg 81%
10:00 +16°C° 0 mm 5 mps 766 mmHg 82%
11:00 +16°C° 0 mm 5 mps 766 mmHg 83%
12:00 +16°C° 0 mm 5 mps 765 mmHg 84%
13:00 +16°C° 0.4 mm 6 mps 765 mmHg 87%
14:00 +15°C° 0.4 mm 6 mps 765 mmHg 91%
15:00 +15°C° 0.4 mm 6 mps 764 mmHg 94%
16:00 +15°C° 0.9 mm 6 mps 764 mmHg 95%
17:00 +15°C° 0.9 mm 6 mps 763 mmHg 97%
18:00 +15°C° 0.9 mm 6 mps 763 mmHg 98%
19:00 +15°C° 1.5 mm 5 mps 763 mmHg 98%
20:00 +15°C° 1.5 mm 5 mps 762 mmHg 98%
21:00 +15°C° 1.5 mm 4 mps 762 mmHg 99%
22:00 +15°C° 0.4 mm 4 mps 762 mmHg 99%
23:00 +16°C° 0.4 mm 3 mps 762 mmHg 99%

14 July, Tuesday

Time Temperature Precipitation Wind Pressure Humidity
00:00 +16°C° 0.4 mm 3 mps 761 mmHg 99%
01:00 +16°C° 0.2 mm 3 mps 761 mmHg 99%
02:00 +16°C° 0.2 mm 3 mps 761 mmHg 98%
03:00 +16°C° 0.2 mm 3 mps 760 mmHg 98%
04:00 +16°C° 0.1 mm 3 mps 760 mmHg 97%
05:00 +16°C° 0.1 mm 3 mps 760 mmHg 96%
06:00 +14°C° 0.1 mm 3 mps 760 mmHg 96%
07:00 +15°C° 0.1 mm 4 mps 760 mmHg 93%
08:00 +15°C° 0.1 mm 5 mps 761 mmHg 91%
09:00 +15°C° 0.1 mm 6 mps 761 mmHg 88%
10:00 +16°C° 0 mm 6 mps 761 mmHg 84%
11:00 +16°C° 0 mm 6 mps 761 mmHg 80%
12:00 +17°C° 0 mm 6 mps 761 mmHg 76%
13:00 +16°C° 0 mm 6 mps 761 mmHg 78%
14:00 +15°C° 0 mm 6 mps 761 mmHg 80%
15:00 +14°C° 0 mm 6 mps 761 mmHg 83%
16:00 +14°C° 0 mm 6 mps 760 mmHg 84%
17:00 +14°C° 0 mm 5 mps 760 mmHg 84%
18:00 +14°C° 0 mm 5 mps 760 mmHg 85%
19:00 +14°C° 0 mm 5 mps 760 mmHg 88%
20:00 +14°C° 0 mm 6 mps 760 mmHg 90%
21:00 +14°C° 0 mm 6 mps 760 mmHg 93%
22:00 +14°C° 0.1 mm 6 mps 760 mmHg 93%
23:00 +14°C° 0.1 mm 7 mps 759 mmHg 93%

15 July, Wednesday

Time Temperature Precipitation Wind Pressure Humidity
00:00 +14°C° 0.1 mm 7 mps 759 mmHg 92%
01:00 +14°C° 0 mm 7 mps 759 mmHg 93%
02:00 +15°C° 0 mm 7 mps 759 mmHg 94%
03:00 +15°C° 0 mm 7 mps 758 mmHg 95%
04:00 +15°C° 0 mm 7 mps 758 mmHg 94%
05:00 +15°C° 0 mm 7 mps 759 mmHg 93%
06:00 +15°C° 0 mm 7 mps 759 mmHg 92%
07:00 +15°C° 0 mm 7 mps 759 mmHg 89%
08:00 +16°C° 0 mm 7 mps 759 mmHg 87%
09:00 +17°C° 0 mm 7 mps 760 mmHg 84%
10:00 +17°C° 0.1 mm 7 mps 760 mmHg 83%
11:00 +17°C° 0.1 mm 6 mps 760 mmHg 83%
12:00 +17°C° 0.1 mm 6 mps 761 mmHg 82%
13:00 +17°C° 0.1 mm 6 mps 761 mmHg 81%
14:00 +17°C° 0.1 mm 6 mps 761 mmHg 80%
15:00 +17°C° 0.1 mm 6 mps 761 mmHg 80%
16:00 +17°C° 0 mm 5 mps 761 mmHg 80%
17:00 +17°C° 0 mm 5 mps 761 mmHg 81%
18:00 +17°C° 0 mm 5 mps 762 mmHg 82%
19:00 +17°C° 0 mm 4 mps 762 mmHg 85%
20:00 +15°C° 0 mm 4 mps 763 mmHg 89%
21:00 +14°C° 0 mm 3 mps 763 mmHg 92%
22:00 +14°C° 0 mm 3 mps 763 mmHg 93%
23:00 +14°C° 0 mm 3 mps 763 mmHg 94%

16 July, Thursday

Time Temperature Precipitation Wind Pressure Humidity
00:00 +14°C° 0 mm 3 mps 764 mmHg 95%
01:00 +14°C° 0 mm 3 mps 764 mmHg 96%
02:00 +14°C° 0 mm 3 mps 764 mmHg 96%
03:00 +14°C° 0 mm 3 mps 764 mmHg 96%
04:00 +14°C° 0 mm 3 mps 764 mmHg 96%
05:00 +14°C° 0 mm 3 mps 764 mmHg 95%
06:00 +16°C° 0 mm 3 mps 764 mmHg 95%
07:00 +16°C° 0 mm 3 mps 764 mmHg 92%
08:00 +17°C° 0 mm 3 mps 765 mmHg 89%
09:00 +18°C° 0 mm 3 mps 765 mmHg 86%
10:00 +19°C° 0.1 mm 4 mps 765 mmHg 84%
11:00 +19°C° 0.1 mm 4 mps 765 mmHg 82%
12:00 +20°C° 0.1 mm 5 mps 765 mmHg 80%
13:00 +20°C° 0 mm 5 mps 765 mmHg 79%
14:00 +21°C° 0 mm 6 mps 765 mmHg 78%
15:00 +21°C° 0 mm 6 mps 765 mmHg 78%
16:00 +21°C° 0 mm 6 mps 765 mmHg 80%
17:00 +20°C° 0 mm 5 mps 765 mmHg 83%
18:00 +20°C° 0 mm 5 mps 765 mmHg 86%
19:00 +19°C° 0 mm 4 mps 765 mmHg 89%
20:00 +17°C° 0 mm 4 mps 765 mmHg 92%
21:00 +16°C° 0 mm 3 mps 765 mmHg 96%
22:00 +16°C° 0 mm 3 mps 765 mmHg 96%
23:00 +16°C° 0 mm 2 mps 765 mmHg 97%
Show more